TIME,DELAY(SENSOR),PRES,T(CTD),SAL,OXYGEN,RAWTEMP,T(OPTODE),TCPHASE,FLUOR,BETA(BETA700),BETA(BETA412),BETA(BETA440),CDOM,C(CSC),ED(ED412.40),ED(ED444.00),ED(ED489.70),ED(ED554.30),LU(LU411.80),LU(LU443.40),LU(LU489.60),LU(LU554.10),COMP,TILTX,TILTX(TILTY),CHECK
1379194270,5807,497.1099853515625000,6.9092001914978030,34.1337013244628900,81.3255920410156200,590.0958251953125000,6.9037442207336430,48.6083106994628900,51,105,88,78,76,15282,2147746084,2147423341,2148009718,2147871140,2147630162,2147075172,2148244352,2147199798,2755,3,13,55285
1379194399,5809,486.0700073242187500,7.0166001319885250,34.1207008361816400,87.1578674316406200,586.8231811523438000,7.0091080665588380,47.8884201049804700,52,102,84,78,77,15282,2147744950,2147426176,2148009115,2147873088,2147623872,2147071899,2148240713,2147201142,2692,4,13,47342
1379194526,5811,475.3900146484375000,7.2673001289367680,34.1167984008789060,95.1720733642578100,579.3350219726562000,7.2498230934143070,46.8860206604003900,52,106,87,79,76,15282,2147744484,2147424868,2148008804,2147870308,2147626724,2147079488,2148239158,2147201453,2836,4,13,34845
1379194665,5807,464.6000061035156000,7.5247001647949220,34.1096992492675800,104.6925964355468800,571.6890258789062000,7.4950919151306150,45.7576789855957000,50,103,84,78,74,15280,2147741056,2147426971,2148009600,2147876553,2147623872,2147080283,2148241398,2147203108,2694,4,13,40511
1379194818,5806,454.1700134277344000,7.6192002296447750,34.1094017028808600,110.7991027832031200,567.8610229492188000,7.6176910400390625,45.0779991149902340,51,105,87,79,75,15280,2147744640,2147424969,2148010377,2147874450,2147626121,2147081746,2148238820,2147204891,1949,3,13,31366
1379195005,5807,443.1099853515625000,7.8832998275756840,34.0984992980957000,120.9373016357421900,559.9879760742188000,7.8694400787353520,43.9599685668945300,51,107,85,80,75,15281,2147737590,2147425627,2148007771,2147874112,2147623113,2147084416,2148238098,2147202806,1099,3,13,52483
1379195170,5805,431.4800109863281000,8.0691003799438480,34.0957984924316400,130.0590972900390600,554.3975830078125000,8.0478820800781250,43.0220298767089840,50,103,85,80,74,15281,2147740096,2147426340,2148006555,2147869888,2147621568,2147081929,2148233536,2147205915,2722,3,13,62326
1379195297,5806,420.2900085449219000,8.2877998352050780,34.0880012512207000,142.0639953613281200,547.4240112304688000,8.2701082229614260,41.8532905578613300,50,105,88,79,74,15278,2147740059,2147425417,2148002432,2147873554,2147618450,2147086701,2148229705,2147202752,1608,4,13,40440
1379195426,5807,408.7099914550781000,8.5343999862670900,34.0912017822265600,151.4877929687500000,539.6425781250000000,8.5176067352294920,40.9399681091308600,50,105,85,80,72,15281,2147739190,2147426404,2148006930,2147873307,2147620050,2147083739,2148235428,2147201846,667,4,13,61418
1379195541,5810,398.6400146484375000,8.9088001251220700,34.1043014526367200,155.9640960693359400,527.2291259765625000,8.9114398956298830,40.3693313598632800,50,105,87,79,73,15282,2147737910,2147423936,2148005778,2147873526,2147619300,2147094473,2148234084,2147202916,838,3,13,22622
1379195682,5806,387.5100097656250000,9.0801000595092770,34.1078987121582000,162.8240051269531200,521.7788085937500000,9.0839824676513670,39.7447700500488300,50,104,85,80,72,15280,2147737380,2147429101,2148006134,2147870582,2147619483,2147089188,2148229988,2147199963,2573,4,13,59695
1379195821,5810,377.1499938964844000,9.2557001113891600,34.1124000549316400,166.3775939941406200,516.4741821289062000,9.2516956329345700,39.3866996765136700,50,105,85,80,72,15277,2147734738,2147424813,2148008356,2147871744,2147616950,2147094930,2148232685,2147202441,1863,3,13,20918
1379196004,5809,364.0700073242187500,9.7683000564575200,34.1180992126464840,176.5361022949218800,500.7821044921875000,9.7466325759887700,38.3845405578613300,49,105,84,79,70,15279,2147734619,2147428644,2148006253,2147873846,2147611209,2147095378,2148223387,2147201197,799,3,13,38085
1379196137,5807,352.9700012207031000,10.1070995330810550,34.1253013610839840,188.0601959228515600,489.5090942382812500,10.1011199951171880,37.4079704284668000,50,103,89,80,70,15277,2147733997,2147426752,2148002578,2147875675,2147611556,2147097206,2148227190,2147205357,2743,3,14,59025
1379196252,5810,342.4899902343750000,10.5229997634887700,34.1437988281250000,195.2015991210937500,476.5267028808594000,10.5083103179931640,36.7296485900878900,49,104,87,79,69,15277,2147734500,2147426962,2148009910,2147873664,2147610861,2147098084,2148223222,2147204946,3386,3,13,60550
1379196369,5805,331.4899902343750000,10.8873996734619140,34.1509017944335940,194.9972991943359400,464.3497924804687500,10.8892602920532230,36.5403289794921900,48,105,88,79,70,15279,2147727963,2147431396,2148010331,2147873810,2147608466,2147101851,2148219483,2147203794,2961,3,13,53302
1379196484,5808,320.3800048828125000,11.3278999328613280,34.1613006591796900,195.7261047363281200,450.4825134277344000,11.3220100402832030,36.2666511535644500,49,107,88,79,69,15277,2147728521,2147430912,2148004690,2147870765,2147606473,2147108964,2148220105,2147204224,2328,3,13,50433
1379196599,5811,309.3900146484375000,11.7000999450683600,34.1750984191894500,200.0614013671875000,437.0805053710937500,11.7391901016235350,35.7797203063964840,48,105,86,79,68,15277,2147726546,2147428900,2148021988,2147875190,2147608301,2147111378,2148220297,2147205933,977,3,13,55756
1379196728,5809,297.8999938964844000,12.2966995239257810,34.2141990661621100,209.0621032714843800,419.3836059570312500,12.2886104583740230,34.9592018127441400,49,104,83,80,69,15273,2147729152,2147433782,2148027565,2147874980,2147601124,2147116489,2148223835,2147210194,3065,3,13,52829
1379196855,5808,288.0299987792969000,12.6971998214721680,34.2330017089843750,210.4505004882812500,406.3630065917969000,12.6918697357177730,34.6740913391113300,49,106,86,79,68,15273,2147723474,2147431204,2148034861,2147872210,2147598272,2147131337,2148229668,2147208045,1848,3,14,55574
1379197032,5808,275.2999877929687500,13.5295000076293950,34.2911987304687500,210.8851928710937500,378.3381042480469000,13.5572700500488280,34.2156410217285160,48,108,85,79,67,15271,2147726144,2147435492,2148050267,2147876150,2147596544,2147129124,2148222793,2147212059,688,3,13,65036
1379197169,5808,264.5700073242187500,14.3444995880126950,34.3706016540527340,212.9606933593750000,353.0143127441406000,14.3366699218750000,33.7139816284179700,48,105,84,81,67,15270,2147720576,2147443520,2148070171,2147870546,2147592557,2147145764,2148231689,2147211968,2415,3,13,42955
1379197334,5808,250.1399993896484400,15.1866998672485350,34.4575996398925800,212.4741973876953000,323.0533142089844000,15.2561798095703120,33.2965202331543000,50,105,86,80,65,15265,2147719149,2147459922,2148112027,2147874660,2147589211,2147151405,2148250057,2147215789,3405,3,14,10329
1379197447,5807,238.6399993896484400,15.6731004714965820,34.5219993591308600,213.1878967285156200,308.4110107421875000,15.7047300338745120,33.0422401428222660,49,108,86,79,65,15264,2147721188,2147476708,2148157952,2147869440,2147584411,2147169453,2148270756,2147215478,2154,2,13,2893
1379197550,5810,227.7500000000000000,15.9843997955322270,34.5471992492675800,213.1360015869140600,298.9896850585937500,15.9931001663208000,32.9087715148925800,49,104,89,81,66,15263,2147719076,2147500123,2148221138,2147872621,2147582985,2147183597,2148297929,2147219776,1340,3,13,12603
1379197655,5809,216.9900054931640600,17.0538997650146500,34.6801986694335940,212.3430023193359400,264.1210937500000000,17.0591793060302730,32.4534492492675800,50,106,85,81,64,15260,2147724982,2147533906,2148307117,2147869284,2147584219,2147212854,2148336100,2147223149,229,3,14,27170
1379197770,5810,205.6799926757812500,17.6791000366210940,34.7593994140625000,212.6905059814453000,243.2559051513672000,17.6965198516845700,32.1401290893554700,52,107,84,79,65,15253,2147731584,2147591789,2148439670,2147871533,2147582089,2147243958,2148398427,2147228004,2998,2,14,10184
1379197861,5810,197.0399932861328000,18.1595001220703120,34.8196983337402340,212.0704956054687500,227.0061035156250000,18.1927700042724600,31.9476509094238280,56,107,87,80,64,15252,2147750445,2147655652,2148575862,2147874523,2147585728,2147288813,2148458880,2147231140,2556,3,15,64332
1379197941,5810,190.0700073242187500,18.6854000091552730,34.8870010375976560,211.8925018310547000,210.9658050537109400,18.6826305389404300,31.7360992431640620,60,108,84,80,65,15247,2147764169,2147722011,2148717430,2147875008,2147589202,2147327030,2148519689,2147236251,1891,2,14,28676
1379197996,5812,185.7599945068359400,18.9573993682861330,34.9235992431640600,212.7243041992187500,201.8619995117187500,18.9606990814209000,31.5660800933837900,62,114,87,81,63,15242,2147784566,2147777874,2148838564,2147875081,2147597275,2147359561,2148569819,2147240886,1266,2,14,45380
1379198051,5808,181.5200042724609400,19.4118995666503900,34.9781990051269500,212.6374969482422000,187.6712951660156200,19.3942794799804700,31.3771305084228500,68,112,88,81,62,15239,2147802843,2147836662,2148965906,2147875300,2147599908,2147398070,2148624100,2147246336,236,2,15,44477
1379198106,5808,177.5000000000000000,19.5485000610351560,34.9986991882324200,213.4781036376953000,181.9694976806640600,19.5685405731201170,31.2545795440673830,69,112,88,80,62,15235,2147822674,2147904301,2149097664,2147877010,2147609426,2147430372,2148682368,2147248201,3005,3,15,19925
1379198161,5810,173.4100036621093800,19.9505004882812500,35.0443992614746100,212.6022033691406200,169.6101989746093800,19.9464302062988280,31.1346092224121100,76,115,87,81,61,15227,2147852873,2147985627,2149266889,2147876790,2147619419,2147483318,2148748699,2147255597,3276,2,15,24512
1379198245,5806,168.0299987792968800,20.1732997894287100,35.0632019042968750,212.5838012695312500,162.4378051757812500,20.1658306121826170,31.0392799377441400,78,120,87,82,62,15220,2147895524,2148104274,2149494784,2147880109,2147636717,2147543158,2148850386,2147261741,2596,2,14,58249
1379198312,5809,164.1499938964843800,20.3300991058349600,35.0802993774414060,212.1224060058593800,157.2444000244140600,20.3247509002685550,30.9944496154785160,80,122,87,81,62,15218,2147944082,2148226770,2149734720,2147881298,2147652406,2147606738,2148952128,2147272283,2022,2,15,60612
1379198379,5809,160.2200012207031200,20.5107002258300780,35.1007995605468750,212.1334991455078000,151.4828948974609400,20.5011100769042970,30.9168205261230470,87,120,88,81,62,15212,2148006144,2148379885,2150033883,2147882587,2147678281,2147691885,2149072859,2147281947,1475,2,16,54153
1379198446,5807,156.3300018310547000,20.6254005432128900,35.1114997863769500,212.3511962890625000,147.9393005371093800,20.6096191406250000,30.8579902648925780,88,116,88,81,62,15213,2148079972,2148547017,2150320859,2147884397,2147709769,2147774683,2149205513,2147287049,1028,2,15,63483
1379198513,5806,152.4199981689453000,20.6296997070312500,35.1137008666992200,212.5879974365234400,146.3352966308593800,20.6587390899658200,30.8238391876220700,87,119,87,81,62,15213,2148187958,2148773220,2150727067,2147889261,2147750921,2147893595,2149378029,2147303652,667,1,15,34995
1379198582,5807,148.4900054931640600,20.8325004577636720,35.1259994506835940,212.0953979492187500,140.9039001464843800,20.8251209259033200,30.7779808044433600,89,117,90,80,63,15210,2148304768,2149015908,2151159625,2147892809,2147793536,2148016694,2149554157,2147316397,3580,1,15,45061
1379198661,5807,144.4600067138672000,20.9288005828857420,35.1320991516113300,211.6318969726562500,137.5003967285156200,20.9294109344482420,30.7575702667236330,94,116,87,81,62,15209,2148474121,2149355282,2151740105,2147901376,2147853805,2148169270,2149784658,2147333696,2745,2,16,62477
1379198740,5806,140.9299926757812500,21.2541007995605470,35.1565017700195300,210.2346954345703000,127.6800003051757800,21.2304897308349600,30.7020606994628900,102,121,91,81,61,15190,2148646153,2149660114,2152238710,2147904685,2147916297,2148305563,2149977453,2147353929,2580,1,15,13743
1379198881,5807,137.2100067138672000,21.5771999359130860,35.2192993164062500,216.2763061523437500,116.9143981933593800,21.5608406066894530,30.2412891387939450,112,125,88,83,60,15183,2148883684,2150092955,2152944621,2147913792,2147998034,2148484717,2150223094,2147377188,2081,2,15,9695
1379199056,5809,133.3699951171875000,21.8129005432128900,35.2470016479492200,222.3359069824218800,109.2189025878906200,21.7971801757812500,29.8319606781005860,117,119,89,82,61,15176,2149169234,2150559753,2153704941,2147927460,2148102070,2148681225,2150494710,2147397760,3059,1,15,42378
1379199231,5811,128.5599975585937500,22.0298995971679700,35.2666015625000000,227.8874969482422000,102.0357971191406200,22.0179595947265620,29.4655303955078120,121,121,88,83,62,15162,2149573184,2151273481,2154876662,2147947794,2148235748,2148931309,2150876315,2147427108,2178,2,15,23471
1379199322,5807,124.6100006103515600,22.1403999328613280,35.2669982910156250,227.2720947265625000,98.3740234375000000,22.1305694580078120,29.4485797882080080,136,124,88,82,61,15144,2150036818,2152092068,2156242523,2147970496,2148398144,2149241216,2151338322,2147472969,1164,2,15,29174
1379199413,5808,120.9800033569336000,22.1634006500244140,35.2667999267578100,225.9882965087890600,97.3986129760742200,22.1605701446533200,29.4985294342041000,138,122,88,82,62,15152,2150550491,2152908589,2157487259,2147999689,2148580123,2149577654,2151808886,2147516178,401,2,15,18722
1379199521,5809,116.3000030517578100,22.3111000061035160,35.2865982055664060,227.6259002685547000,92.6451568603515600,22.3068408966064450,29.3577804565429700,133,127,88,82,61,15149,2151672301,2154673618,2160045394,2148052425,2148973997,2150267913,2152700379,2147595620,43,2,15,45145
1379199600,5811,112.1699981689453100,22.3607997894287100,35.2797012329101560,227.0106048583984400,90.9808273315429700,22.3580703735351560,29.3662796020507800,140,122,88,83,60,15144,2153017362,2156596416,2162514523,2148110345,2149453961,2151034541,2153618230,2147685604,3246,2,15,56608
1379199679,5807,108.1600036621093800,22.4137992858886720,35.2848014831543000,226.3236999511718800,88.9274291992187500,22.4212894439697270,29.3735294342041000,142,124,88,84,61,15141,2154915849,2159216722,2165809060,2148192146,2150116470,2152068681,2154805769,2147806674,3089,1,15,5823
1379199758,5810,104.4800033569336000,22.6625003814697270,35.3204994201660160,229.5886993408203000,81.2607421875000000,22.6574707031250000,29.1178703308105470,141,121,89,83,60,15137,2157056905,2162136301,2169204653,2148283035,2150945334,2153288658,2156128576,2147938422,2136,2,16,22010
1379199839,5810,100.8499984741211000,22.9099006652832030,35.3484001159668000,233.8663940429687500,72.9196777343750000,22.9146804809570300,28.8102092742919920,126,119,87,83,59,15148,2159735442,2165641865,2173097865,2148412681,2152085421,2154939666,2157845796,2148116352,1267,2,16,42778
1379199894,5810,98.5999984741211000,23.0802001953125000,35.3594017028808600,236.6058959960937500,67.7918319702148400,23.0729408264160160,28.6185398101806640,102,119,88,82,59,15150,2161447972,2167789366,2175526198,2148497362,2152858203,2156024064,2158967469,2148222738,540,1,15,43277
1379199949,5810,96.4100036621093800,23.2045001983642580,35.3680000305175800,238.9546051025390600,64.0683898925781200,23.1879291534423830,28.4645195007324220,93,121,91,83,59,15153,2163276937,2170005824,2177847396,2148605705,2153761993,2157262966,2160174418,2148346505,126,1,15,33191
1379200004,5808,94.3600006103515600,23.2499008178710940,35.3700981140136700,240.2510070800781200,62.2742309570312500,23.2433490753173830,28.3833904266357420,89,122,89,85,59,15154,2164963876,2172039195,2179943497,2148709312,2154614253,2158385801,2161254573,2148452032,3264,1,16,33955
1379200059,5809,92.3899993896484400,23.2768993377685550,35.3725013732910160,241.2388000488281200,61.3130798339843750,23.2730503082275400,28.3269004821777340,86,123,91,84,59,15153,2167103232,2174615707,2182649188,2148843181,2155713654,2159875099,2162707309,2148594285,3143,2,16,56987
1379200144,5809,88.8399963378906200,23.3474998474121100,35.3745994567871100,242.0980987548828000,58.6843490600585940,23.3542995452880860,28.2556495666503900,84,127,90,84,58,15149,2171719049,2180101056,2188138084,2149152210,2158072164,2162910116,2165445577,2148863552,2636,1,16,64747
1379200199,5806,85.8799972534179700,23.4157009124755860,35.3746986389160160,242.7828063964843800,56.8245887756347660,23.4118003845214840,28.2018699645996100,83,124,90,85,57,15149,2176270692,2185390893,2193507126,2149456996,2160119533,2165707136,2167944502,2149079890,2688,2,16,4977
1379200254,5810,82.9199981689453100,23.5587997436523440,35.3732986450195300,242.9344940185547000,52.6916313171386700,23.5396308898925780,28.1438198089599600,81,123,90,84,58,15145,2180346523,2189696256,2197602112,2149766217,2162775890,2168848027,2170767826,2149428964,2931,2,16,41598
1379200309,5807,80.1299972534179700,23.5884990692138670,35.3583984375000000,242.0661010742187500,50.6038093566894500,23.6042404174804700,28.1564598083496100,81,121,89,86,57,15145,2185979291,2195908269,2203767606,2150243611,2165309979,2171799762,2173151268,2149701952,2970,1,16,49365
1379200364,5809,77.5100021362304700,23.7730998992919920,35.3656005859375000,241.7351074218750000,45.3783988952636700,23.7660293579101560,28.1061897277832030,77,124,90,84,59,15143,2190777307,2200888877,2208232365,2150578852,2168300763,2175584667,2176509357,2150051785,2791,1,16,38662
1379200421,5807,75.0400009155273400,23.8194007873535160,35.3680000305175800,242.8553009033203000,43.7537918090820300,23.8163509368896500,28.0361595153808600,78,123,88,84,58,15141,2196137782,2206859209,2214087579,2151170788,2171766500,2179571008,2179769554,2150479634,2016,1,16,42606
1379200476,5809,72.5400009155273400,23.8761005401611330,35.3628997802734400,243.3468933105468800,42.0833587646484400,23.8681106567382800,27.9938507080078120,78,122,91,83,58,15139,2203127853,2213952621,2220761444,2151822491,2175683894,2184039881,2183336978,2150928621,1303,1,16,27991
1379200531,5805,69.8000030517578100,23.9421997070312500,35.3569984436035160,243.4248046875000000,39.8043518066406250,23.9387493133544920,27.9621391296386720,76,124,86,83,57,15134,2210915794,2222057152,2229280210,2152959414,2179632301,2188635200,2187114614,2151385746,656,1,15,30253
1379200586,5806,66.9899978637695300,24.0760993957519530,35.3569984436035160,244.3115997314453000,35.8750610351562500,24.0606002807617200,27.8746299743652340,72,124,88,84,55,15138,2218025490,2229208100,2236194733,2153749906,2183649024,2193188187,2190982208,2151924854,3340,1,16,24090
1379200641,5805,64.5500030517578100,24.1420993804931640,35.3583984375000000,245.8847961425781200,33.4916114807128900,24.1345500946044920,27.7763099670410160,72,124,90,84,58,15135,2225723410,2237324763,2244434761,2155035044,2187810230,2197792420,2194763584,2152443392,3330,1,16,53906
1379200696,5806,62.4799995422363300,24.2250995635986330,35.3600006103515600,247.2680053710937500,30.5852394104003900,24.2247600555419920,27.6806697845459000,74,125,91,83,58,15128,2231920036,2243420397,2250066934,2155931492,2192275190,2202803309,2198935140,2153050294,3423,1,16,56094
1379200754,5804,60.7400016784668000,24.3901004791259770,35.3596000671386700,248.2447052001953000,26.8981800079345700,24.3392601013183600,27.5932006835937500,71,126,90,84,56,15131,2235374729,2246238802,2252074532,2156508909,2194864265,2205437961,2200909924,2153342345,172,1,16,10062
1379200821,5807,59.5499992370605500,24.4200000762939450,35.3591003417968750,249.0968933105468800,25.3402595520019530,24.3876705169677730,27.5375900268554700,73,123,90,85,57,15121,2240095689,2251529325,2257809280,2157334061,2197071725,2207862262,2202827730,2153661046,352,2,16,53455
1379201169,5807,57.1399993896484400,24.8090991973876950,35.3680992126464840,252.3849945068359400,12.9186496734619140,24.7740707397460940,27.2465400695800780,68,127,91,85,57,15117,2253644580,2264702738,2269797622,2159418075,2207762020,2218767789,2210675904,2154782848,476,2,15,28668
1379201248,5811,55.2999992370605500,25.1980991363525400,35.3790016174316400,251.8623046875000000,3.1086709499359130,25.0798301696777340,27.1491909027099600,65,126,92,86,57,15106,2257190829,2267115309,2270490724,2160227373,2212515666,2223335040,2213869330,2155184603,2857,1,16,13296
1379201440,5809,53.3899993896484400,25.4643993377685550,35.3931007385253900,251.3587036132812500,-8.9031190872192380,25.4549903869628900,27.0246391296386720,64,130,89,84,59,15097,2270563181,2280974674,2284783990,2162573065,2222347501,2233424914,2221038838,2156343753,479,2,16,3768
1379201800,5811,51.4799995422363300,26.3194007873535160,35.3979988098144500,247.1737976074218800,-36.7270507812500000,26.3274707794189450,26.8646297454834000,63,130,94,89,57,15096,2279229019,2287679149,2289227574,2164178633,2233919936,2244115401,2227458230,2157267794,478,1,16,17865
1379201992,5806,49.5099983215332000,26.5387992858886720,35.3857002258300800,245.7819061279297000,-43.6405906677246100,26.5450592041015620,26.8404808044433600,61,127,92,86,54,15098,2288848448,2297537033,2299181174,2167051593,2242488722,2252418560,2233424201,2158265307,3322,1,16,46317
1379202095,5807,47.4000015258789060,26.6632003784179700,35.3835983276367200,244.9434967041015600,-47.3264694213867200,26.6612091064453120,26.8317794799804700,62,128,96,88,55,15092,2305021686,2314387538,2314934656,2170633746,2257580827,2266570797,2242661184,2159649920,2534,1,16,20035
1379202222,5811,45.8499984741210940,27.0312995910644530,35.3791007995605500,241.9427947998047000,-56.9153709411621100,26.9638099670410160,26.8449897766113280,60,126,91,84,55,15092,2306479981,2312974409,2310585270,2171124214,2267774482,2275298029,2247324324,2160181814,2338,1,16,65175
1379202403,5806,43.3499984741210940,27.7329998016357420,35.3703002929687500,233.9429931640625000,-79.7076263427734400,27.6858406066894530,26.9214591979980470,60,128,92,85,57,15083,2335510464,2340054509,2336964315,2177608978,2286031122,2293280795,2260495131,2163209901,556,1,16,2103
1379202618,5810,41.5900001525878900,27.8220005035400400,35.3168983459472660,228.7519073486328000,-84.0425033569336000,27.8236293792724600,27.1042098999023440,58,130,93,85,55,15078,2339094125,2343491282,2340610395,2180843666,2291878573,2297652690,2262675108,2163249179,3351,1,17,35732
1379202990,5810,38.7299995422363300,27.8472995758056640,35.2764015197753900,224.2261962890625000,-85.1159667968750000,27.8577709197998050,27.3013896942138670,54,119,91,84,54,15103,2349836498,2353322898,2349471872,2186800548,2330807707,2329770029,2280640786,2166290496,3150,1,17,421
1379203045,5809,36.5800018310546900,27.8477993011474600,35.2753982543945300,224.1367950439453000,-85.1641464233398400,27.8593006134033200,27.3051204681396500,55,120,87,84,56,15108,2372945033,2378211593,2375463204,2195832758,2352761426,2349238912,2292782180,2168460224,2926,1,16,47565
1379203100,5816,34.2200012207031250,27.8481006622314450,35.2742996215820300,223.9454040527343800,-85.1085891723632800,27.8575305938720700,27.3146190643310550,54,118,90,84,55,15106,2380189330,2384972708,2381633161,2202482340,2370920411,2363690368,2300359414,2170106806,2668,0,17,56317
1379203155,5808,31.7700004577636720,27.8477001190185550,35.2743988037109400,223.9277954101562500,-85.0135879516601600,27.8545093536376950,27.3167400360107420,54,121,91,84,55,15105,2392904813,2399034843,2397454930,2211492617,2401140626,2390278701,2317776731,2174554624,2399,0,16,57777
1379203240,5809,27.2800006866455080,27.8509998321533200,35.2741012573242200,223.9766998291015600,-85.0053329467773400,27.8542499542236330,27.3145408630371100,52,118,88,84,54,15105,2412193499,2417414710,2416154870,2229495040,2446953682,2428933339,2340672036,2182094372,2149,2,16,34155
1379203295,5808,23.7700004577636720,27.8521995544433600,35.2737007141113300,223.9458007812500000,-85.1563873291015600,27.8590507507324220,27.3141593933105470,52,119,91,84,56,15111,2443275337,2450478153,2453363666,2260954477,2494381485,2470968082,2368254107,2189897764,1929,1,17,10390
